Temperature
17 17 16 16 16 16 16 16 16 15 15 15 15 15 15 15 15 15 15 15 14 14 14 14 14 14 14 13 13 13 13 13 12 12 12 12 12 12
16 16 16 16 16 16 16 16 16 16 15 15 15 15 15 14 14 14 14 14 14 14 14 13 13 13 13 13 13 13 12 12 12 12 12 11 11 11
16 16 16 16 16 16 16 15 15 15 15 15 14 14 14 14 14 13 13 13 13 13 13 13 13 12 12 12 12 12 12 12 11 11 11 11 11 11
16 16 16 15 15 15 15 15 15 15 15 14 14 14 14 13 13 13 13 12 12 12 12 12 12 12 12 11 11 11 11 11 11 11 10 10 10 10
15 15 15 15 15 15 15 15 15 14 14 14 14 13 13 13 13 12 12 12 12 11 11 11 11 11 11 11 11 10 10 10 10 10 10 9 9 9
15 15 15 15 15 15 15 14 14 14 14 13 13 13 13 12 12 12 11 11 11 11 11 10 10 10 10 10 10 10 10 9 9 9 9 9 9 8
14 14 14 14 14 14 14 14 14 13 13 13 13 12 12 12 12 11 11 11 10 10 10 10 10 10 10 9 9 9 9 9 8 8 8 8 8 8
14 14 14 14 14 13 13 13 13 13 13 12 12 12 12 11 11 11 11 10 10 9 10 9 9 9 9 9 8 8 8 8 8 8 8 8 7 7
13 13 13 13 13 13 13 13 13 12 12 12 12 12 11 11 11 11 10 10 10 9 9 9 9 8 8 8 8 8 8 7 7 7 7 7 7 7
13 13 13 13 12 12 12 12 12 12 12 11 11 11 11 11 10 10 10 10 9 9 9 9 8 8 8 8 7 7 7 7 7 7 7 6 6 6
12 12 12 12 12 12 12 12 11 11 11 11 11 10 10 10 10 10 9 9 9 9 8 8 8 8 7 7 7 7 7 7 7 6 6 6 6 6
12 12 12 12 12 11 11 11 11 11 10 10 10 10 10 9 9 9 9 9 8 8 8 8 8 7 7 7 7 7 7 7 6 6 6 6 6 6
12 12 11 11 11 11 11 11 10 10 10 10 9 9 9 9 9 8 8 8 8 8 8 8 7 7 7 7 7 7 7 6 6 6 6 6 6 6
11 11 11 11 11 10 10 10 10 9 9 9 9 8 8 8 8 8 8 8 8 7 7 7 7 7 7 7 7 6 6 6 6 6 6 6 6 5
11 10 10 10 10 10 10 9 9 9 9 8 8 8 8 8 7 7 7 7 7 7 7 7 7 7 7 7 6 6 6 6 6 6 6 6 5 5
10 10 10 10 9 9 9 9 8 8 8 8 8 8 7 7 7 7 7 7 7 7 7 7 6 6 6 6 6 6 6 6 6 6 6 6 5 5
10 10 9 9 9 8 8 8 8 8 8 8 7 7 7 7 7 7 7 7 7 6 6 6 6 6 6 6 6 6 6 6 6 6 6 6 5 5
9 9 9 9 8 8 8 8 8 8 7 7 7 7 7 7 7 7 6 6 6 6 6 6 6 6 6 6 6 6 6 6 6 6 6 5 5 5
9 9 8 8 8 8 8 8 8 7 7 7 7 7 7 7 6 6 6 6 6 6 6 6 6 6 6 6 6 6 6 6 6 5 5 5 5 5
8 8 8 8 8 8 7 7 7 7 7 7 7 7 7 6 6 6 6 6 6 6 6 6 6 6 6 5 5 6 5 5 5 5 5 5 5 5
8 8 8 8 7 7 7 7 7 7 7 7 7 7 6 6 6 6 6 6 6 6 6 6 6 6 5 5 5 5 5 5 5 5 5 5 5 5
8 8 8 8 7 7 7 7 7 7 7 7 7 7 6 6 6 6 6 6 6 6 6 6 6 5 5 5 5 5 5 5 5 5 5 5 5 5
8 8 8 7 7 7 7 7 7 7 7 7 6 6 6 6 6 6 6 6 6 6 6 5 6 5 5 5 5 5 5 5 5 5 5 5 5 5
Wind_Speed
3 3 3 2 3 3 4 4 4 3 3 2 1 1 2 3 3 4 4 5 4 4 4 4 4 3 3 3 3 4 4 3 3 2 2 1 2 2
1 2 1 1 2 2 3 3 4 4 3 1 2 1 2 3 4 5 6 7 6 7 7 7 7 6 5 4 4 5 5 5 4 3 3 2 2 2
1 2 1 1 1 1 1 2 2 2 3 1 0 1 2 3 4 5 6 7 8 8 8 9 8 8 8 8 7 8 8 7 6 6 5 5 4 4
1 1 1 1 0 0 1 1 2 2 3 2 1 1 2 3 4 5 5 7 7 9 9 9 9 8 8 8 8 9 9 9 9 9 8 8 8 8
1 1 1 1 1 1 1 1 1 1 2 3 2 1 2 3 4 4 5 5 6 7 8 8 9 9 8 8 8 9 10 10 10 9 8 8 8 7
2 2 2 2 2 2 1 1 2 2 3 3 3 2 2 2 3 3 3 3 3 5 6 7 8 8 8 8 8 8 8 9 9 9 8 8 8 7
3 3 4 5 5 3 3 2 3 3 3 3 3 2 2 2 2 2 3 2 3 3 2 3 4 5 6 6 6 7 7 8 8 8 8 8 7 7
3 3 4 4 5 6 7 6 5 4 3 3 2 3 2 2 2 2 2 2 1 1 1 2 2 2 3 4 5 5 5 6 6 7 7 7 6 6
3 3 2 3 4 5 7 8 7 6 4 3 3 2 2 2 3 3 3 2 1 1 1 1 1 1 1 2 3 3 3 4 5 5 5 4 5 5
3 3 3 3 3 5 6 6 6 5 4 3 3 2 2 3 4 4 4 4 3 2 1 1 0 0 0 0 0 1 1 1 1 2 1 1 2 2
3 3 3 3 4 6 6 5 5 4 7 9 8 7 7 6 6 5 4 4 2 1 0 1 0 0 0 1 0 1 1 2 2 2 1 1 1 1
3 3 5 5 6 6 5 5 4 3 4 5 7 8 7 7 7 4 4 3 2 1 0 1 1 1 1 0 0 0 1 1 1 2 2 2 2 1
3 2 3 6 6 6 5 4 4 4 5 5 5 5 5 5 4 4 3 2 2 1 1 2 1 1 1 0 0 0 1 1 1 2 3 3 3 4
3 2 2 6 7 7 5 6 7 6 5 5 4 4 3 3 3 3 3 3 2 1 2 3 1 2 2 1 1 1 1 2 2 2 2 3 3 4
3 5 6 7 7 5 6 7 6 4 4 4 3 2 1 1 2 3 4 4 4 4 2 2 2 2 1 1 1 1 1 1 2 2 2 2 2 2
4 6 8 8 6 5 5 4 3 3 3 2 2 1 1 2 2 2 2 2 2 2 4 3 2 2 1 1 1 1 1 1 1 1 2 2 3 3
4 3 3 3 3 3 3 3 2 2 2 1 1 2 2 2 2 1 1 1 2 1 2 2 2 1 1 1 1 1 1 1 1 1 1 1 2 3
5 3 2 2 2 1 1 1 1 1 1 1 1 1 1 1 1 1 1 1 1 0 1 1 1 1 0 0 2 2 2 1 1 1 1 2 3 3
3 2 2 2 1 1 1 1 1 0 1 1 1 1 1 1 1 1 1 1 0 0 1 1 0 0 1 2 2 3 3 2 1 1 2 2 3 4
2 2 2 2 2 1 1 1 1 1 1 1 1 1 2 2 1 1 1 1 1 1 1 1 1 2 2 3 2 2 4 4 3 3 2 2 3 6
2 2 2 2 2 2 2 2 2 2 2 2 2 2 2 2 2 2 2 2 2 1 2 3 3 3 2 1 2 3 2 5 7 4 3 3 3 3
2 2 2 2 2 2 2 2 2 2 2 2 2 2 3 3 3 3 3 3 3 4 4 4 2 1 2 2 4 4 4 4 5 9 11 9 4 4
2 2 2 2 2 2 2 2 3 3 3 3 3 3 3 3 4 4 4 4 4 4 4 3 2 2 3 4 4 4 6 5 4 4 5 9 15 17
Wind_Direction
202 200 206 214 206 212 205 196 199 231 248 227 211 142 127 110 106 105 107 104 113 118 123 128 122 125 129 133 143 153 160 168 172 178 187 217 233 228
167 160 185 222 211 211 210 212 211 213 233 215 210 190 136 117 104 106 103 94 92 103 107 106 103 100 101 109 114 119 121 121 120 118 124 124 120 115
152 157 183 170 182 211 209 202 199 192 214 235 132 104 111 110 93 90 90 91 87 88 92 97 98 99 99 98 99 98 98 98 98 96 96 98 99 98
167 147 197 173 147 178 190 197 193 185 181 191 146 105 100 116 102 93 86 85 83 81 88 92 95 98 99 100 99 97 94 90 85 81 80 81 83 79
133 133 136 119 106 68 96 127 149 143 145 156 149 104 85 104 94 86 82 75 80 80 83 82 85 90 92 96 99 100 97 94 90 87 82 80 81 80
85 89 87 96 100 95 92 97 113 113 115 126 122 113 105 103 109 111 94 69 71 71 72 74 77 81 84 90 95 99 100 97 93 90 86 83 82 81
78 69 73 80 81 89 95 99 111 113 115 120 121 120 121 133 142 134 128 106 66 56 72 65 71 74 75 77 83 91 99 98 94 92 88 85 83 83
92 76 70 65 75 79 79 85 97 116 132 131 135 145 157 161 131 140 141 141 127 29 91 66 67 66 70 80 80 91 102 101 98 94 91 85 81 78
97 95 87 71 82 89 79 75 71 73 97 134 142 157 168 181 160 152 152 145 144 157 128 95 50 62 53 70 82 89 91 95 99 96 89 82 73 68
88 100 103 83 91 104 94 79 67 57 66 86 114 124 135 156 163 158 145 117 91 66 108 144 198 262 272 251 161 165 132 111 120 120 95 63 54 55
79 86 102 97 95 105 103 94 77 59 64 76 78 78 84 102 119 116 118 123 102 66 37 150 182 247 279 292 271 202 224 233 232 226 244 282 322 338
82 74 83 96 97 106 113 114 103 77 74 71 65 63 71 83 96 113 142 141 122 114 153 160 144 158 167 259 286 161 190 221 229 234 255 263 257 252
102 82 73 91 95 99 105 108 120 114 95 86 76 66 64 66 69 77 98 124 129 128 168 163 136 146 158 183 269 271 233 250 262 267 266 257 241 223
116 104 92 97 96 93 96 104 106 103 97 92 82 69 61 54 51 58 72 81 83 102 152 156 144 169 169 174 207 245 239 235 243 264 284 280 258 246
108 104 96 95 94 87 88 98 102 101 103 100 94 74 45 46 61 65 61 69 69 65 97 145 142 152 175 189 195 210 242 255 240 254 268 274 273 264
103 94 90 87 83 79 80 84 92 107 118 116 110 84 68 66 62 61 64 55 57 40 41 60 115 149 164 191 197 226 241 257 282 277 277 278 277 256
117 92 83 83 79 74 73 75 83 99 103 106 111 95 81 76 61 50 69 75 74 43 15 20 37 104 172 195 217 248 259 266 261 263 257 286 287 279
119 109 112 113 115 117 113 90 79 93 99 117 123 125 122 110 82 69 76 92 95 56 13 0 9 36 54 223 228 247 260 266 270 239 228 261 283 284
115 134 152 160 165 161 162 167 186 188 147 151 167 171 164 151 134 124 117 121 172 277 310 327 350 167 288 296 297 221 229 259 263 264 253 249 266 283
149 176 194 196 193 197 203 214 218 194 181 186 193 197 193 191 194 197 193 203 229 284 301 289 237 230 240 268 281 281 233 231 244 261 268 262 266 279
188 204 208 208 208 211 215 216 217 214 208 199 204 203 201 203 218 220 215 214 229 248 266 273 269 242 225 229 266 285 275 241 234 241 254 270 284 288
206 217 219 216 216 219 220 214 211 217 216 215 222 220 214 211 217 224 223 226 235 244 256 269 267 195 194 229 266 284 291 291 269 250 245 237 253 272
223 225 228 230 228 218 214 213 219 226 227 227 228 227 221 225 228 226 229 234 242 253 264 268 259 232 237 242 256 269 276 282 287 288 280 260 248 253
Height
1560 1560 1560 1561 1561 1561 1561 1561 1562 1561 1560 1561 1561 1561 1561 1561 1561 1561 1561 1560 1561 1560 1560 1560 1560 1560 1560 1560 1560 1560 1561 1561 1561 1561 1561 1562 1562 1562
1556 1557 1557 1557 1557 1557 1557 1557 1557 1558 1557 1557 1558 1558 1558 1557 1557 1558 1557 1557 1557 1557 1557 1557 1556 1556 1556 1556 1557 1557 1557 1557 1557 1558 1558 1558 1558 1558
1553 1553 1553 1553 1553 1553 1553 1553 1553 1554 1553 1554 1554 1554 1555 1554 1555 1555 1554 1554 1555 1555 1555 1555 1554 1554 1554 1553 1554 1554 1554 1554 1554 1554 1554 1555 1555 1555
1550 1550 1550 1550 1550 1550 1550 1550 1550 1550 1550 1550 1551 1551 1551 1552 1552 1552 1552 1552 1553 1553 1553 1553 1553 1552 1552 1551 1551 1551 1551 1551 1551 1551 1551 1551 1552 1552
1547 1547 1547 1547 1547 1547 1547 1547 1547 1547 1547 1547 1548 1548 1549 1549 1549 1550 1550 1551 1551 1552 1552 1552 1551 1551 1551 1550 1550 1549 1549 1549 1549 1549 1549 1550 1550 1550
1545 1545 1545 1545 1545 1545 1545 1545 1545 1545 1545 1545 1545 1546 1546 1547 1548 1548 1549 1550 1550 1551 1551 1550 1550 1550 1549 1549 1549 1548 1548 1548 1548 1548 1548 1549 1548 1548
1543 1543 1543 1543 1543 1543 1543 1543 1543 1543 1544 1544 1544 1544 1545 1545 1546 1547 1547 1548 1549 1549 1549 1549 1549 1549 1548 1548 1548 1547 1547 1547 1547 1547 1547 1547 1547 1547
1541 1542 1542 1542 1542 1542 1542 1542 1542 1543 1542 1543 1543 1543 1543 1544 1545 1545 1546 1547 1547 1549 1549 1549 1549 1548 1548 1547 1547 1547 1547 1547 1547 1547 1546 1546 1546 1546
1540 1540 1541 1541 1541 1541 1541 1541 1541 1542 1542 1542 1542 1542 1543 1543 1544 1544 1545 1545 1546 1547 1547 1547 1547 1547 1547 1547 1547 1547 1546 1546 1546 1546 1546 1546 1546 1546
1539 1539 1540 1540 1541 1541 1541 1541 1541 1541 1541 1541 1542 1542 1542 1542 1543 1544 1544 1544 1544 1545 1546 1546 1546 1546 1546 1546 1546 1547 1546 1546 1546 1546 1545 1546 1546 1545
1538 1539 1539 1540 1540 1540 1540 1540 1540 1541 1541 1541 1541 1541 1541 1542 1542 1542 1542 1543 1543 1544 1544 1545 1545 1545 1545 1545 1545 1546 1546 1545 1545 1545 1545 1545 1545 1545
1538 1538 1539 1539 1540 1540 1540 1539 1539 1540 1540 1540 1540 1540 1541 1541 1541 1541 1542 1542 1542 1543 1543 1543 1543 1544 1544 1544 1545 1545 1545 1545 1544 1544 1544 1544 1544 1543
1537 1538 1539 1539 1539 1539 1539 1539 1539 1539 1539 1539 1539 1540 1540 1540 1540 1540 1541 1541 1542 1541 1542 1542 1542 1542 1543 1543 1543 1543 1543 1543 1543 1543 1543 1543 1542 1542
1537 1538 1538 1538 1538 1538 1538 1538 1539 1539 1539 1539 1539 1540 1540 1540 1540 1540 1541 1541 1541 1541 1541 1541 1541 1541 1541 1541 1542 1542 1542 1542 1542 1542 1542 1541 1541 1541
1537 1537 1538 1538 1538 1538 1538 1538 1539 1539 1539 1539 1539 1540 1540 1540 1540 1540 1541 1541 1541 1541 1541 1541 1541 1540 1540 1540 1540 1540 1541 1541 1541 1540 1540 1540 1539 1539
1537 1537 1537 1537 1538 1538 1538 1538 1538 1539 1539 1539 1539 1540 1540 1540 1540 1540 1540 1541 1541 1540 1540 1540 1540 1540 1539 1539 1539 1539 1539 1539 1539 1539 1538 1538 1538 1537
1536 1537 1537 1537 1537 1537 1538 1538 1539 1539 1539 1540 1540 1540 1540 1540 1540 1540 1540 1540 1540 1540 1540 1539 1539 1539 1539 1538 1538 1538 1538 1538 1538 1537 1537 1536 1535 1535
1536 1536 1536 1536 1537 1537 1537 1538 1538 1539 1539 1539 1540 1540 1540 1540 1540 1540 1540 1540 1540 1540 1539 1539 1539 1538 1538 1538 1538 1537 1536 1536 1536 1536 1535 1534 1533 1533
1535 1535 1535 1536 1536 1536 1537 1537 1537 1538 1538 1539 1539 1539 1539 1540 1540 1540 1539 1539 1539 1539 1539 1538 1538 1537 1537 1536 1536 1536 1535 1535 1534 1533 1533 1532 1531 1530
1533 1534 1535 1535 1535 1536 1536 1536 1537 1537 1538 1538 1538 1539 1539 1539 1539 1539 1539 1538 1538 1538 1538 1537 1536 1536 1536 1535 1534 1534 1533 1532 1532 1531 1530 1529 1528 1528
1532 1533 1534 1534 1535 1535 1535 1536 1536 1536 1536 1537 1537 1537 1537 1537 1537 1537 1537 1537 1537 1536 1536 1536 1535 1535 1534 1533 1533 1531 1531 1530 1529 1529 1528 1527 1525 1524
1532 1532 1533 1533 1533 1533 1534 1534 1535 1535 1535 1535 1535 1535 1535 1535 1535 1535 1535 1535 1535 1534 1533 1533 1533 1532 1532 1531 1530 1529 1528 1528 1527 1526 1525 1524 1522 1521
1531 1531 1532 1532 1532 1532 1532 1532 1533 1533 1533 1533 1533 1533 1533 1533 1533 1533 1532 1532 1532 1531 1530 1530 1530 1529 1529 1528 1527 1526 1525 1524 1523 1522 1521 1520 1519 1518